Weather History for KLLQ - November, 2012

Change the Weather History Date:

Friday, November 9, 2012

  Actual Average Record
Temperature  
Mean Temperature 58 °F -  
Max Temperature 71 °F 65 °F 81 °F (1980)
Min Temperature 44 °F 43 °F 16 °F (1991)
Degree Days  
Heating Degree Days 8    
Growing Degree Days 8 (Base 50)    
Moisture  
Dew Point 44 °F    
Average Humidity 62    
Maximum Humidity 86    
Minimum Humidity 36    
Precipitation  
Precipitation 0.00 in - - ()
Sea Level Pressure  
Sea Level Pressure 30.15 in    
Wind  
Wind Speed 5 mph (South)    
Max Wind Speed 10 mph    
Max Gust Speed -    
Visibility 10 miles    
Events      
Averages and records for this station are not official NWS values.
T = Trace of Precipitation, MM = Missing Value Source: NWS Daily Summary

Daily Weather History Graph

Daily Weather History Graph

Search for Another Location

Airport or City:

Trip Planner

Search our weather history database for the weather conditions in past years. The results will help you decide how hot, cold, wet, or windy it might be!

Date:

Astronomy

Nov. 09, 2012 Rise Set
Actual Time 6:33 AM CST 5:07 PM CST
Civil Twilight 6:07 AM CST 5:33 PM CST
Nautical Twilight 5:37 AM CST 6:03 PM CST
Astronomical Twilight 5:08 AM CST 6:32 PM CST
Moon 1:46 AM CST (11/9) 2:09 PM CST (11/9)
Length of Visible Light 11h 26m
Length of Day
10h 34m
Waning Crescent, 23% of the Moon is Illuminated
Nov 9
Waning Crescent
Nov 13
New
Nov 20
First Quarter
Nov 28
Full
Dec 6
Last Quarter

Hourly Weather History & Observations

Time (CST) Temp. Dew Point Humidity Pressure Visibility Wind Dir Wind Speed Gust Speed Precip Events Conditions
12:53 AM 48.9 °F 39.9 °F 71% 30.15 in 10.0 mi South 5.8 mph - N/A   Clear
1:53 AM 50.0 °F 39.9 °F 68% 30.14 in 10.0 mi South 4.6 mph - N/A   Clear
2:53 AM 46.0 °F 39.9 °F 79% 30.15 in 10.0 mi Calm Calm - N/A   Clear
3:53 AM 44.1 °F 39.9 °F 85% 30.16 in 10.0 mi Calm Calm - N/A   Clear
4:53 AM 44.1 °F 39.9 °F 85% 30.17 in 10.0 mi Calm Calm - N/A   Clear
6:53 AM 45.0 °F 41.0 °F 86% 30.20 in 10.0 mi Calm Calm - N/A   Clear
7:53 AM 50.0 °F 42.1 °F 74% 30.22 in 10.0 mi South 4.6 mph - N/A   Clear
8:53 AM 57.9 °F 44.1 °F 60% 30.22 in 10.0 mi SSW 8.1 mph - N/A   Clear
9:53 AM 62.1 °F 46.0 °F 56% 30.22 in 10.0 mi SSW 9.2 mph - N/A   Clear
10:53 AM 62.1 °F 46.9 °F 58% 30.21 in 10.0 mi South 8.1 mph - N/A   Clear
11:53 AM 69.1 °F 46.9 °F 45% 30.17 in 10.0 mi SSE 8.1 mph - N/A   Clear
12:53 PM 69.1 °F 46.9 °F 45% 30.14 in 10.0 mi SE 4.6 mph - N/A   Clear
1:53 PM 70.0 °F 46.0 °F 42% 30.12 in 10.0 mi SSE 10.4 mph - N/A   Clear
2:53 PM 71.1 °F 43.0 °F 36% 30.11 in 10.0 mi SSE 6.9 mph - N/A   Clear
3:53 PM 70.0 °F 43.0 °F 38% 30.10 in 10.0 mi SSE 10.4 mph - N/A   Clear
4:53 PM 66.0 °F 46.0 °F 48% 30.10 in 10.0 mi SE 4.6 mph - N/A   Clear
5:53 PM 62.1 °F 46.9 °F 58% 30.10 in 10.0 mi SSE 3.5 mph - N/A   Clear
6:53 PM 60.1 °F 46.0 °F 60% 30.12 in 10.0 mi SSE 5.8 mph - N/A   Clear
7:53 PM 60.1 °F 45.0 °F 57% 30.12 in 10.0 mi South 6.9 mph - N/A   Clear
8:53 PM 57.0 °F 45.0 °F 64% 30.12 in 10.0 mi South 4.6 mph - N/A   Clear
9:53 PM 55.9 °F 45.0 °F 67% 30.12 in 10.0 mi South 4.6 mph - N/A   Clear
10:53 PM 55.0 °F 46.0 °F 72% 30.13 in 10.0 mi South 4.6 mph - N/A   Clear
11:53 PM 57.0 °F 48.9 °F 74% 30.13 in 10.0 mi South 6.9 mph - N/A   Clear